Location: Sternwarte_Laufen
(47.9344°N, 12.9346°E)
Time: 12:18:10
(UTC+02:00)

ISS - Pass Details

Date: 21 May 2018
Orbit: 402 x 407 km, 51.6° (Epoch: 24 May)

Event Time Altitude Azimuth Distance (km) Brightness Sun altitude
Rises 02:20:23 0° 288° (WNW) 2,320 0.0 -19.9°
Reaches altitude 10° 02:22:30 10° 295° (WNW) 1,459 -1.0 -19.7°
Maximum altitude 02:25:42 48° 11° (NNE) 533 -2.9 -19.6°
Drops below altitude 10° 02:28:52 10° 88° (E) 1,456 -0.7 -19.4°
Sets 02:30:59 0° 94° (E) 2,315 0.2 -19.2°
